Theta_e
348 348 350 352 354 353 352 351 351 350 349 349 348 347 347 347 346 347 347 345 346 345 347 346 349 345 345 345 345 344 344 344 344 345 345 346 346 345 346 346 346 347 346 346 345 342 340 339 338 342 344 344 345 346 344 341 343 343 342 344 345 343
347 347 350 351 351 353 354 351 352 352 351 350 347 346 350 349 347 350 344 347 347 345 345 345 346 344 347 349 347 344 345 345 346 345 345 345 345 345 345 346 346 346 347 345 345 343 342 341 341 341 342 344 346 342 343 343 343 342 342 345 346 346
346 347 350 350 351 352 352 353 351 351 349 347 349 349 348 348 349 347 347 345 347 348 347 348 351 348 350 345 348 346 345 345 344 344 344 346 346 345 344 345 346 346 346 346 343 338 339 341 345 345 346 351 341 341 343 344 345 345 344 345 346 346
346 348 349 348 350 351 351 351 350 350 349 349 348 347 348 348 347 348 348 349 348 349 350 351 351 350 350 350 348 346 345 343 344 344 343 348 345 346 345 345 345 346 345 343 341 338 337 339 341 343 343 341 341 343 345 346 343 345 346 344 345 346
346 348 348 348 349 348 351 348 349 348 348 347 345 346 347 348 348 349 349 349 348 349 349 349 350 350 349 349 349 348 351 350 351 349 346 346 345 345 349 342 343 346 342 339 339 340 339 339 341 341 341 342 345 346 345 347 347 347 345 348 346 345
346 348 349 348 348 348 349 348 348 346 346 346 346 345 347 347 347 349 348 348 349 350 349 349 349 349 348 349 348 348 348 350 349 350 349 349 344 344 341 339 339 339 339 343 340 342 343 341 340 342 343 347 346 347 346 345 345 347 346 348 342 342
345 347 348 348 348 348 348 347 348 346 345 344 345 346 345 346 347 348 349 350 349 347 347 347 347 348 347 349 349 348 347 349 350 350 351 349 348 348 346 343 342 342 342 342 342 343 344 345 347 344 346 344 346 347 347 346 346 346 348 344 341 340
344 346 348 348 349 347 348 348 347 346 345 344 345 345 344 345 349 348 349 350 350 348 348 348 347 346 346 349 347 347 349 347 350 349 351 351 350 347 347 347 349 347 346 346 344 346 345 345 346 348 345 345 345 348 347 345 347 347 347 344 341 338
346 346 347 348 347 346 348 347 347 345 344 344 345 345 345 347 347 348 350 351 350 351 349 348 349 347 348 347 347 348 347 348 349 349 350 349 350 350 348 348 348 346 346 346 345 346 344 344 346 347 344 343 344 345 346 345 345 342 343 340 339 335
346 347 347 347 347 346 346 346 345 345 344 346 345 347 348 346 346 348 349 352 351 350 350 350 350 348 347 346 348 348 347 347 347 349 348 349 350 349 347 346 346 345 343 344 344 344 344 343 342 343 342 343 343 342 341 340 339 340 340 340 337 333
346 347 346 344 345 347 347 345 345 345 345 345 346 347 348 348 347 348 348 352 351 351 351 352 351 349 348 348 348 347 346 347 346 345 348 349 350 349 348 346 346 344 344 343 342 342 341 342 341 340 341 339 339 339 338 338 336 337 336 336 337 335
346 347 347 345 346 345 346 345 345 346 344 346 348 347 347 348 347 349 351 353 354 354 353 353 352 349 349 347 348 345 346 348 345 346 347 349 348 348 347 344 344 344 344 343 341 341 341 340 340 338 337 336 335 335 333 333 333 334 333 335 335 336
347 348 346 346 345 346 346 346 346 345 346 347 348 348 348 348 348 349 353 354 353 352 353 352 348 347 346 347 346 347 344 346 347 348 348 347 346 346 346 343 343 342 341 341 341 341 338 340 338 336 335 332 332 330 330 331 331 331 330 330 331 331
346 345 346 346 347 345 346 345 345 346 347 348 348 350 348 348 348 349 353 353 352 352 351 350 347 347 346 346 346 345 345 345 346 347 347 346 344 343 341 341 339 339 338 338 338 339 337 336 334 333 331 330 330 330 328 327 327 327 328 328 328 329
345 345 347 347 346 345 346 345 344 345 346 347 347 348 347 348 348 349 351 352 353 352 350 347 347 347 345 345 344 344 342 344 347 347 344 344 341 340 340 339 338 337 338 337 336 338 337 336 332 329 329 328 327 327 326 326 326 325 323 325 325 325
345 345 346 346 346 347 346 346 345 344 347 347 346 346 346 347 347 349 351 351 352 349 348 347 347 347 345 345 343 342 341 344 345 344 342 342 342 339 340 339 337 337 336 334 335 336 336 332 329 326 326 325 324 324 323 323 323 322 322 323 322 323
343 345 346 346 345 346 346 345 346 346 346 346 345 345 345 347 347 349 351 349 348 347 347 346 346 346 345 344 343 341 341 343 344 341 341 340 339 339 340 337 336 334 335 332 331 333 333 329 326 324 323 322 322 322 321 322 321 321 321 320 320 319
344 345 345 344 345 345 345 345 345 344 345 344 345 346 346 346 347 349 348 346 345 346 346 345 345 345 344 343 343 342 342 343 342 342 340 339 338 339 338 338 333 331 330 332 331 333 330 326 323 322 320 320 319 318 317 318 319 319 318 318 318 318
344 344 344 344 345 345 345 344 344 343 343 343 345 346 345 344 347 349 347 345 345 345 345 344 344 344 344 341 341 342 342 341 341 339 339 338 337 337 335 334 331 328 328 329 332 334 330 324 321 318 316 317 317 317 316 316 317 317 316 318 316 316
343 343 343 344 343 341 340 339 339 340 340 341 342 341 343 344 347 347 345 345 344 344 344 344 344 345 344 342 341 340 341 341 340 339 338 337 336 334 333 330 329 328 327 328 332 331 328 323 320 318 315 315 315 314 315 314 316 315 316 316 315 315
341 342 341 340 340 339 337 337 338 338 338 339 339 340 341 343 345 343 342 342 343 343 343 344 343 344 343 340 340 340 340 339 338 337 336 335 334 331 330 328 325 327 326 326 328 331 328 326 322 319 319 317 314 313 314 314 314 314 314 314 313 312
339 339 340 339 339 339 339 338 337 336 337 337 338 337 337 339 341 341 342 342 343 343 343 343 342 342 342 339 339 338 338 336 334 333 332 331 330 328 328 326 324 321 323 324 326 329 330 328 321 320 318 318 318 316 313 312 311 312 313 313 314 313
337 337 338 339 338 338 340 341 339 338 337 337 339 339 338 338 339 339 341 341 341 341 341 340 340 339 337 336 336 336 335 332 332 330 329 328 329 329 327 325 325 321 318 320 323 327 328 330 324 325 325 321 317 313 313 312 313 311 311 313 313 313
337 338 339 339 339 342 342 342 341 340 339 338 335 336 335 335 335 337 335 335 336 336 335 335 335 335 334 335 335 333 332 330 328 328 327 325 327 326 327 325 323 322 322 317 315 317 324 326 325 326 319 320 321 319 310 311 311 310 310 310 312 311
336 338 338 339 341 342 339 335 335 336 335 331 332 332 331 329 330 330 331 332 331 333 332 332 332 332 332 332 332 331 329 327 326 325 325 324 324 323 323 322 323 323 322 317 312 314 316 320 321 321 319 314 308 314 309 309 307 305 309 307 307 307
336 337 337 339 340 338 334 331 331 328 326 326 325 325 326 326 327 327 328 331 330 330 330 329 328 329 330 329 328 327 326 324 323 323 323 323 323 323 322 320 320 321 321 320 314 311 310 314 315 316 317 315 317 315 308 310 309 302 309 309 308 307
336 337 338 338 338 335 334 332 332 329 326 326 327 328 330 329 329 327 329 329 328 329 328 328 327 326 326 325 324 324 324 322 322 322 323 323 323 322 321 321 321 321 320 320 316 309 309 308 311 312 312 313 314 315 316 314 306 306 304 306 306 307
336 336 338 337 337 337 333 332 333 332 331 330 330 328 328 327 328 327 326 326 327 327 327 326 324 323 323 323 322 322 322 322 321 321 320 320 320 319 319 320 320 320 320 321 320 316 313 310 307 308 313 311 310 311 312 312 311 309 305 305 303 306
337 337 337 338 336 336 334 333 333 332 331 332 330 327 327 326 325 326 324 325 326 326 326 325 324 323 323 322 322 322 321 321 320 319 318 319 319 319 318 317 316 316 316 315 316 315 313 311 312 309 310 311 311 310 309 311 311 309 306 305 301 303
335 337 337 337 336 335 334 335 334 332 329 327 326 326 326 324 324 325 324 325 325 325 324 324 324 323 322 321 321 321 320 321 321 319 318 317 316 315 315 315 315 315 315 314 314 313 312 311 312 313 313 313 311 310 309 308 307 308 308 307 302 300
336 336 337 338 338 334 335 336 334 334 329 327 326 325 324 322 321 323 323 324 325 324 324 323 323 323 322 321 321 321 320 320 320 318 316 315 313 311 312 313 314 314 313 312 312 312 312 312 312 311 310 308 307 307 305 304 306 306 306 306 305 303
335 335 336 336 336 334 334 334 333 330 329 329 327 326 325 321 321 322 323 323 323 322 321 321 322 321 321 321 321 320 320 319 318 318 316 315 314 313 312 312 311 312 312 312 313 312 311 310 310 310 310 309 307 308 308 307 307 308 306 305 306 304
333 335 335 336 334 333 332 331 331 330 330 329 329 329 327 325 325 325 324 323 322 320 319 319 320 320 321 320 319 318 318 317 316 316 316 314 314 313 312 311 311 311 311 310 310 311 310 311 310 308 307 308 307 308 307 308 309 308 307 307 306 304
334 336 337 336 335 332 332 333 333 332 330 328 329 330 329 327 326 325 324 323 323 320 320 321 321 320 319 319 318 319 318 317 316 315 315 314 313 311 311 309 310 309 309 309 310 310 310 310 310 310 309 307 307 307 307 308 308 307 306 306 303 303
333 336 336 335 335 334 333 333 333 333 331 330 329 328 327 327 326 324 324 323 323 322 321 321 320 320 319 320 318 317 316 315 314 314 314 313 312 312 312 310 310 310 310 310 309 309 308 309 308 308 309 307 307 307 307 306 306 307 306 305 304 304
334 334 334 333 334 334 334 333 333 332 331 330 329 328 325 324 324 324 324 324 323 322 321 321 321 320 319 318 317 316 316 315 314 314 313 311 311 311 311 309 308 309 308 309 308 308 308 309 309 309 308 308 307 306 307 306 306 306 305 306 305 305
334 334 333 332 334 335 334 332 332 332 330 329 327 325 322 323 323 324 325 324 322 322 322 320 319 319 318 318 317 316 315 314 313 312 312 311 310 310 310 310 309 309 308 308 308 307 307 307 308 307 307 307 306 305 305 307 306 306 306 306 305 304
Wind_Speed
11 12 12 11 11 11 13 15 14 13 12 11 10 9 9 9 9 9 9 7 6 6 6 5 8 6 8 6 6 6 6 6 6 6 4 4 3 3 3 2 2 3 4 5 5 6 5 4 4 5 6 7 8 8 2 3 3 2 2 3 3 7
10 12 11 9 9 9 10 12 12 12 11 10 9 9 9 7 8 7 7 8 5 4 4 5 5 6 5 8 7 5 5 4 4 4 4 4 3 3 3 3 3 4 4 6 8 7 8 8 8 6 7 8 8 4 0 3 3 4 3 3 6 9
11 11 11 10 8 10 12 10 11 11 9 10 9 8 7 7 6 7 6 5 4 4 4 4 4 4 5 8 7 5 4 2 1 2 3 5 4 3 3 4 4 4 7 9 9 4 5 7 7 11 10 7 3 2 3 2 3 2 3 5 6 12
11 12 11 8 8 9 9 9 9 9 8 7 8 7 6 5 5 4 5 4 4 4 3 4 7 9 8 6 7 9 8 6 6 4 3 7 8 6 6 7 6 7 9 9 4 4 3 2 1 3 1 2 2 1 2 2 3 2 4 9 8 12
11 11 11 8 8 8 8 8 8 7 7 7 7 7 6 5 5 5 4 3 4 3 3 3 4 4 2 2 3 4 5 4 3 5 6 3 4 7 8 7 7 9 4 1 1 1 2 1 1 1 1 2 2 3 3 2 3 5 8 7 10 15
11 12 10 9 9 8 8 7 7 7 6 6 6 6 6 5 5 5 5 4 3 3 3 3 3 3 2 1 2 2 2 2 2 2 3 2 3 1 2 1 1 1 1 1 1 1 1 2 1 2 2 2 3 2 3 3 4 4 7 7 11 16
11 11 11 9 8 8 7 6 7 6 7 6 6 6 5 5 5 5 5 4 4 3 3 3 3 3 2 1 2 1 2 2 2 2 1 1 2 2 1 1 1 1 1 1 1 1 0 2 3 3 3 3 4 4 4 4 4 4 5 8 13 19
10 10 9 9 8 8 7 7 7 7 6 7 6 6 5 5 5 5 5 4 3 2 2 2 3 3 2 1 1 1 1 2 2 1 2 1 1 2 1 1 1 1 0 1 1 1 2 2 2 3 3 3 4 4 4 4 4 5 6 6 10 18
11 11 9 8 8 7 7 7 7 7 6 7 6 5 4 5 4 4 4 3 3 2 2 2 2 3 2 2 2 1 1 2 1 2 1 2 2 1 1 1 1 0 1 1 2 2 2 2 1 3 3 4 4 4 4 4 3 5 6 7 9 14
12 11 9 8 7 8 7 8 7 7 6 7 6 5 5 4 3 3 3 3 2 2 1 1 2 2 2 3 2 1 1 2 2 2 2 2 2 1 1 2 1 1 2 2 2 2 1 2 3 3 3 4 4 4 4 5 5 4 4 6 8 11
12 11 9 8 7 8 7 7 7 7 7 7 6 5 5 4 3 3 3 3 3 2 1 1 1 1 2 3 3 2 2 2 3 3 2 3 3 2 2 2 3 3 2 2 2 2 2 2 2 4 4 5 5 5 5 5 5 5 5 5 4 8
12 11 10 9 8 8 7 8 8 6 7 6 6 5 5 4 3 3 3 3 2 1 1 1 1 1 2 3 3 2 3 3 3 3 3 3 3 2 2 3 3 3 3 2 2 3 2 2 3 4 5 5 5 5 5 5 6 6 7 6 5 4
12 12 11 10 9 7 8 8 7 6 6 6 6 5 4 4 4 3 3 2 2 2 1 1 2 2 3 3 4 3 3 3 3 3 3 4 3 1 1 2 2 2 2 2 1 2 2 2 3 5 5 5 5 6 6 6 6 6 6 6 5 5
11 12 12 10 9 8 8 8 7 6 6 6 5 4 4 3 3 3 3 3 3 3 3 2 3 3 2 3 4 4 4 4 3 4 3 2 2 3 3 2 2 1 2 1 2 1 1 3 4 5 6 6 6 6 6 6 6 6 6 6 5 5
11 12 11 10 10 9 8 8 7 6 6 6 5 4 4 4 3 3 3 3 3 3 4 3 3 3 2 3 3 4 4 3 3 2 3 3 2 2 3 3 3 2 1 1 2 2 3 4 5 6 6 6 6 6 6 6 6 6 6 6 5 6
13 13 12 11 10 10 9 8 7 6 6 6 5 4 4 3 3 3 3 3 4 4 4 4 4 3 3 3 3 3 4 3 3 3 3 3 2 3 3 2 3 3 1 1 2 2 4 6 7 7 6 6 6 5 6 6 6 6 6 6 6 6
14 13 12 11 10 9 9 9 8 7 6 5 4 4 4 4 4 3 2 3 4 4 4 4 4 3 3 3 3 3 4 3 2 3 3 2 2 3 2 1 2 2 2 0 3 5 6 6 7 7 7 7 6 6 6 6 6 6 6 7 6 6
12 12 10 10 10 9 8 8 8 6 6 5 5 4 4 4 3 2 2 4 5 5 4 4 4 4 3 3 3 3 4 3 2 2 2 2 3 2 2 1 2 3 2 1 3 5 7 7 7 7 7 7 7 6 6 6 6 6 6 6 6 6
12 11 10 9 10 9 9 8 7 7 7 6 5 4 4 4 3 2 3 4 5 5 5 4 4 4 4 4 3 3 3 3 2 1 1 1 1 2 2 2 2 3 3 3 3 5 7 7 8 8 8 8 8 8 7 7 6 5 5 5 5 5
11 10 10 9 9 9 8 8 8 7 6 5 5 4 4 3 3 3 3 4 5 4 5 5 5 4 3 3 3 3 2 1 2 2 2 2 2 2 2 2 3 3 4 5 4 6 7 8 9 9 9 9 9 9 9 7 6 6 5 5 5 5
11 12 11 10 8 8 9 8 7 7 7 6 5 5 3 3 2 2 3 4 4 4 5 4 4 3 3 3 3 3 2 2 2 3 2 2 3 3 2 3 3 3 4 5 5 5 7 7 8 8 7 9 8 8 8 8 7 6 6 5 5 5
9 10 9 9 8 8 8 8 7 7 7 6 6 6 5 3 3 3 3 3 3 3 3 3 2 3 3 3 2 1 2 2 2 3 3 3 3 3 2 2 2 4 4 4 4 2 5 6 5 5 6 6 6 6 7 7 7 7 6 6 5 5
9 8 7 9 9 8 8 7 8 7 8 6 4 4 5 5 5 5 5 4 3 3 3 2 3 3 3 3 3 2 2 3 3 2 2 3 3 3 3 3 3 2 4 4 4 2 2 4 3 5 4 5 5 6 6 6 7 7 6 5 4 4
8 8 9 9 9 9 8 7 7 7 8 7 6 6 6 5 5 5 5 4 4 3 3 3 3 3 3 4 3 3 3 3 3 2 2 3 4 4 3 3 3 2 1 3 4 4 4 2 5 2 5 4 3 5 7 4 5 5 5 5 4 4
9 9 9 9 8 8 9 9 8 7 6 7 5 6 6 5 4 4 4 4 4 4 4 4 4 4 4 4 4 4 4 3 3 3 3 4 4 4 4 4 3 3 3 3 5 5 5 5 5 5 6 2 4 5 4 7 6 5 2 4 5 5
11 11 9 10 9 10 10 9 8 7 6 3 5 4 5 6 5 5 4 4 4 4 4 4 4 3 4 4 5 5 4 4 4 4 4 4 5 5 5 4 3 3 5 5 5 6 7 6 7 8 7 6 5 5 3 6 5 4 4 5 4 5
11 9 10 12 12 10 10 9 10 10 10 7 6 5 4 4 5 5 4 5 4 4 4 5 4 5 5 5 5 4 5 5 5 5 5 5 5 5 4 4 3 4 4 3 4 6 6 6 6 8 8 8 9 8 8 1 1 6 5 4 3 3
11 12 11 12 12 11 11 10 11 10 8 9 9 9 7 5 4 5 6 5 4 4 4 4 5 5 5 5 5 5 6 6 5 5 5 5 5 5 5 5 5 5 4 4 3 4 4 4 5 5 6 7 8 8 8 8 7 4 3 3 4 4
13 13 12 13 12 11 11 12 9 9 10 7 9 9 7 6 5 5 6 5 5 5 5 5 5 5 4 5 5 6 6 6 6 6 6 6 6 7 7 6 6 6 6 6 6 5 5 5 4 4 4 5 5 5 6 6 5 6 4 1 4 2
13 11 12 13 12 12 13 13 12 9 9 8 9 7 7 7 6 6 6 6 5 5 5 5 5 5 5 6 6 6 6 7 6 6 6 7 8 8 7 8 8 8 7 8 6 7 7 6 5 5 4 2 3 3 4 5 6 5 4 4 4 4
13 11 13 14 13 14 13 11 10 8 11 11 9 9 8 7 7 7 7 6 5 5 5 5 5 5 5 6 6 6 6 7 7 7 7 7 7 7 7 8 8 9 9 9 8 8 8 7 6 6 6 6 6 6 6 7 6 6 5 5 4 4
14 13 12 13 13 14 11 10 11 10 10 12 11 10 9 10 9 9 8 7 6 5 5 5 5 5 5 6 6 6 7 7 6 6 7 6 7 7 7 7 7 7 7 8 7 7 7 8 8 7 7 7 7 7 7 6 5 5 5 5 5 4
15 14 14 14 15 15 12 13 12 14 13 13 10 11 11 11 10 8 7 7 7 6 6 6 6 6 6 7 6 6 6 6 6 6 7 7 7 7 7 7 8 8 8 8 7 7 7 7 7 7 7 7 7 7 7 5 5 5 5 4 6 5
15 15 14 15 16 15 14 14 15 15 14 13 11 10 10 10 9 7 7 7 7 7 6 6 7 6 7 6 6 6 6 7 7 7 7 7 7 7 8 8 8 8 9 8 8 9 8 8 8 8 7 7 7 7 6 5 5 5 6 6 7 7
16 16 15 14 14 15 14 15 15 14 14 11 10 8 7 7 7 8 7 7 6 6 6 7 7 7 7 7 7 7 7 7 7 7 7 7 7 7 7 8 8 8 7 7 8 8 8 9 8 9 8 7 7 6 6 6 5 6 6 7 7 7
15 14 13 15 14 14 14 14 15 15 14 11 9 8 7 6 6 7 7 7 7 7 7 7 7 7 8 8 8 8 8 8 8 7 7 7 7 7 7 8 7 7 8 6 8 9 8 9 9 9 9 7 7 7 6 5 6 6 6 6 5 6
16 16 16 16 15 14 13 15 16 15 13 11 11 10 9 10 9 7 7 7 7 7 8 7 8 8 8 8 8 8 8 8 7 7 7 7 8 8 7 7 7 8 8 7 8 8 7 8 8 8 7 8 7 6 6 6 6 5 5 5 5 5
Wind_Direction
170 171 171 168 161 153 139 143 142 133 130 122 121 128 128 134 135 129 132 121 177 161 133 139 176 120 172 104 110 115 110 104 105 100 100 102 120 142 154 180 200 195 195 179 190 183 163 170 185 207 208 217 226 233 270 317 321 300 317 351 23 48
167 173 172 164 161 147 150 158 152 148 141 133 138 146 165 147 145 129 141 176 153 144 145 129 124 142 121 149 123 95 95 97 87 94 99 110 109 134 155 165 204 214 204 214 210 200 162 164 182 202 213 223 228 266 41 302 306 331 329 6 43 29
169 172 173 165 160 152 159 161 156 149 138 146 148 168 148 156 153 153 153 136 143 141 158 134 109 103 104 66 103 96 82 102 121 88 128 125 139 136 151 175 195 219 229 220 217 202 191 164 160 188 205 213 251 349 338 311 292 321 344 36 48 22
172 172 173 168 163 158 160 160 159 152 150 148 156 158 151 154 151 144 146 146 156 162 157 142 126 135 154 157 136 156 168 174 174 175 191 178 159 161 176 183 199 216 215 213 206 196 186 155 162 184 166 291 345 331 280 320 318 337 30 35 34 25
174 173 174 166 164 161 158 164 157 155 151 155 156 156 153 152 149 156 161 162 157 179 183 158 144 153 165 147 144 142 169 181 155 144 213 145 169 147 196 161 174 206 219 216 143 49 324 71 274 294 69 329 331 334 318 331 10 332 59 49 37 32
173 176 174 168 165 154 165 162 155 155 150 153 159 156 156 159 156 167 175 171 168 176 182 146 136 122 122 114 121 109 118 138 166 127 192 145 118 153 135 137 151 138 153 152 130 1 34 322 339 4 354 3 345 346 336 356 22 5 64 56 42 36
173 175 173 168 160 163 166 157 158 158 156 160 163 161 163 160 162 166 171 166 181 175 164 146 127 114 88 43 81 103 120 144 167 128 94 94 101 125 122 121 142 126 95 39 14 67 99 67 11 357 360 3 13 9 348 11 20 29 56 65 56 41
172 172 170 166 165 165 159 157 153 144 173 158 167 166 162 161 155 171 169 172 173 172 155 139 129 124 118 102 88 93 127 122 104 108 88 85 167 91 109 120 108 109 96 96 86 30 34 35 38 21 19 12 24 27 7 12 31 41 67 57 59 41
170 173 169 167 169 162 160 161 159 161 166 165 176 161 160 159 169 167 159 163 159 151 152 121 126 123 129 110 94 69 66 73 72 83 110 95 74 105 99 79 70 31 81 32 83 43 38 49 46 47 11 48 30 31 26 27 29 63 67 63 65 50
168 172 166 171 168 163 161 160 162 166 158 176 163 159 167 173 164 167 157 144 155 129 105 104 120 121 116 103 85 78 81 83 74 54 55 75 67 59 55 84 88 9 97 102 71 80 305 61 66 43 29 56 43 46 47 39 36 33 86 87 89 75
168 165 167 171 167 159 162 167 161 167 166 173 160 170 170 170 167 154 146 141 120 95 94 89 93 109 116 118 120 124 106 94 74 57 39 56 56 57 68 62 46 30 33 42 48 50 17 50 43 73 55 55 59 61 62 60 56 54 44 57 71 97
166 164 168 168 162 160 169 166 162 171 171 166 163 172 165 168 155 153 133 126 119 135 159 114 114 110 120 119 123 96 80 76 77 80 59 53 57 39 56 59 65 78 39 29 42 43 55 28 43 54 69 70 69 77 77 70 69 61 60 53 48 49
165 164 169 168 165 164 168 166 167 173 165 167 170 167 168 163 158 157 127 132 137 157 157 158 131 127 126 116 109 112 98 87 83 72 68 53 45 46 81 109 94 64 72 82 76 78 64 81 72 61 73 81 80 75 72 76 68 65 60 61 57 63
169 168 169 167 165 167 169 167 169 170 165 170 168 166 162 162 168 153 146 143 169 174 172 160 139 127 120 116 112 97 88 88 86 80 75 53 53 34 30 28 17 58 38 25 64 70 82 68 81 98 79 68 66 62 65 67 70 70 64 59 55 43
172 169 168 166 171 168 165 167 166 171 169 167 163 169 166 177 187 155 171 151 174 173 163 145 130 127 124 113 107 99 92 84 79 84 74 60 52 45 39 12 1 353 69 52 52 52 63 83 85 79 75 74 77 81 76 72 66 66 70 66 55 47
175 169 172 171 171 165 161 165 163 164 162 161 165 169 182 193 188 161 170 156 166 156 142 135 133 132 124 117 99 93 87 76 72 65 63 49 26 36 36 25 26 350 357 67 121 100 90 94 87 81 76 78 76 76 75 72 67 60 52 55 53 48
180 170 172 173 166 157 158 162 162 162 156 157 167 177 183 192 185 167 156 161 152 140 146 138 137 128 119 112 112 98 82 82 56 56 50 31 38 14 45 47 45 31 344 116 109 109 104 99 92 87 84 81 76 70 69 66 63 65 64 54 50 52
175 170 169 167 161 158 162 159 158 154 155 167 172 177 177 186 164 160 181 164 148 140 145 138 135 130 115 106 98 102 99 76 68 55 50 31 32 13 28 8 64 36 20 10 126 122 114 106 100 94 84 74 68 68 70 66 62 59 59 56 57 55
171 166 156 156 159 159 153 152 149 154 160 162 162 163 175 176 147 174 179 145 150 148 140 140 136 129 129 121 114 101 87 83 52 24 27 315 79 39 41 41 44 88 59 51 93 108 110 108 103 97 86 77 73 67 65 59 60 64 63 65 67 56
162 148 150 158 162 157 154 151 149 143 142 148 155 155 168 163 153 171 154 151 151 146 134 147 146 131 124 122 115 98 90 76 32 351 7 351 348 40 70 85 72 77 98 103 107 115 120 115 105 98 92 83 75 73 66 66 67 63 67 66 56 49
140 158 160 159 162 153 155 147 147 152 148 153 153 152 160 148 137 128 141 142 142 140 147 144 137 131 107 103 97 98 97 46 2 30 41 64 70 82 79 81 89 64 87 103 115 125 124 133 127 112 104 99 90 79 77 74 68 64 61 58 56 54
153 173 162 156 153 162 160 158 157 150 145 154 160 163 152 145 120 120 123 118 126 127 127 135 127 109 111 106 109 105 57 59 55 67 64 73 80 94 90 83 91 95 70 97 103 127 143 173 162 150 152 134 114 102 86 80 75 67 65 64 63 60
164 172 161 156 158 162 160 155 156 153 154 140 117 143 143 146 145 141 128 125 114 115 130 124 101 84 78 78 76 62 70 72 55 78 110 100 103 94 79 67 47 72 107 94 105 92 163 301 241 156 172 183 151 156 150 117 93 78 69 63 66 68
171 167 164 163 169 165 161 146 135 140 148 157 158 142 138 132 104 103 96 79 76 71 71 75 74 91 80 72 72 76 80 73 75 65 76 98 94 91 84 80 76 61 109 123 92 84 34 1 336 247 193 243 131 190 153 132 103 89 83 81 85 79
166 162 162 162 163 152 120 87 70 86 93 84 99 130 128 108 101 90 102 96 86 80 82 76 66 61 83 84 75 71 74 76 73 66 72 83 79 71 79 79 65 55 40 76 101 86 70 42 38 18 341 260 187 207 62 120 118 84 91 96 76 73
167 175 163 157 150 135 122 122 130 123 113 122 147 155 151 135 136 143 127 108 98 88 92 84 82 84 80 84 80 79 81 89 79 72 71 77 83 84 75 81 65 77 76 63 86 96 84 67 59 42 45 37 9 11 97 139 211 124 132 102 89 60
170 159 158 154 148 138 136 135 143 156 155 156 152 138 88 120 132 120 120 117 101 90 92 95 87 80 76 77 82 88 88 82 80 78 76 80 81 81 79 62 68 73 78 80 82 88 86 87 74 54 51 50 48 47 32 346 121 139 162 122 95 103
163 165 164 157 156 154 142 144 169 155 149 164 169 150 133 124 117 122 117 115 115 107 99 98 98 104 113 111 106 95 88 85 86 84 85 82 81 83 89 78 71 73 68 57 65 83 81 62 71 67 41 49 57 53 54 50 24 348 15 113 128 135
166 168 167 155 162 148 149 160 153 155 165 169 160 151 137 133 132 127 120 126 123 114 104 95 97 100 101 103 99 94 92 91 90 91 91 89 86 83 80 81 77 73 69 70 66 68 85 85 84 85 82 69 63 64 68 60 41 29 19 39 100 75
169 165 161 162 160 146 158 161 166 157 143 151 158 141 142 135 138 138 132 133 134 136 129 121 116 115 113 105 98 98 96 94 90 87 88 91 94 89 83 78 77 77 79 81 72 71 75 79 75 62 52 64 78 84 73 65 47 37 56 33 39 36
170 168 163 164 163 154 163 163 151 160 163 160 154 146 143 140 142 148 143 141 144 138 133 126 126 122 114 107 102 98 99 97 97 99 102 104 96 94 93 90 88 83 79 80 81 82 80 78 79 72 66 64 64 55 49 47 34 34 27 23 16 36
167 170 169 169 165 160 154 157 164 172 159 165 163 156 156 148 157 158 152 150 143 133 127 130 135 128 121 112 107 105 107 107 103 105 102 101 102 103 104 101 94 89 85 83 87 88 87 88 85 85 75 70 67 59 53 46 42 27 21 18 357 10
167 169 169 166 159 158 161 170 179 174 173 173 175 164 160 156 165 161 155 150 149 145 148 150 143 133 123 122 117 119 118 112 109 104 104 102 103 106 105 99 94 90 86 83 79 81 82 76 77 81 81 73 68 63 59 51 36 30 22 11 16 11
166 169 169 169 157 163 169 175 175 174 172 169 170 174 167 157 154 150 147 150 155 152 156 145 141 134 132 128 121 115 112 108 107 108 106 105 110 112 109 104 100 95 93 90 89 89 88 87 82 78 78 76 68 67 62 49 44 38 30 25 25 15
170 172 167 168 164 167 172 175 173 174 173 171 164 162 154 144 140 140 147 149 150 151 145 141 137 131 133 124 124 124 119 117 114 113 114 113 112 109 105 102 97 96 94 93 93 90 87 85 83 81 78 78 78 71 66 57 47 39 40 36 26 12
168 165 165 167 171 171 170 171 171 172 174 163 159 148 133 125 130 141 145 146 145 147 140 134 131 136 133 135 133 129 127 121 121 120 122 125 120 111 110 106 104 105 104 105 103 98 96 90 87 84 83 83 81 74 67 60 53 48 41 34 32 21
165 164 169 171 172 177 167 169 172 170 167 157 158 149 139 140 141 142 141 141 143 137 133 136 138 141 141 138 139 134 128 126 125 127 128 124 118 115 115 112 111 112 107 105 98 94 92 92 91 86 84 83 84 86 77 67 58 50 42 36 36 34